Weather History for Camarillo, CA

Change the Weather History Date:

Friday, January 18, 2013

  Actual Average Record
Temperature  
Mean Temperature 71 °F 55 °F  
Max Temperature 79 °F 66 °F 88 °F (1976)
Min Temperature 62 °F 43 °F 31 °F (2007)
Degree Days  
Heating Degree Days 0 11  
Month to date heating degree days 225 198  
Since 1 July heating degree days 771 879  
Cooling Degree Days 6 0  
Month to date cooling degree days 13 0  
Year to date cooling degree days 13 0  
Growing Degree Days 21 (Base 50)    
Moisture  
Dew Point 10 °F    
Average Humidity 11    
Maximum Humidity 14    
Minimum Humidity 7    
Precipitation  
Precipitation 0.00 in 0.11 in 3.04 in (1952)
Month to date precipitation 0.01 2.42  
Year to date precipitation 0.01 2.42  
Since 1 July precipitation 2.72 6.66  
Sea Level Pressure  
Sea Level Pressure 30.12 in    
Wind  
Wind Speed 17 mph (ENE)    
Max Wind Speed 26 mph    
Max Gust Speed 32 mph    
Visibility 10 miles    
Events      
T = Trace of Precipitation, MM = Missing Value Source: NWS Daily Summary

Daily Weather History Graph

Daily Weather History Graph

Search for Another Location

Airport:

Trip Planner

Search our weather history database for the weather conditions in past years. The results will help you decide how hot, cold, wet, or windy it might be!

Date:

Astronomy

Jan. 18, 2013 Rise Set
Actual Time 7:01 AM PST 5:13 PM PST
Civil Twilight 6:34 AM PST 5:40 PM PST
Nautical Twilight 6:03 AM PST 6:10 PM PST
Astronomical Twilight 5:33 AM PST 6:40 PM PST
Moon 11:04 AM PST (1/18) No Moon Set
Length of Visible Light 11h 06m
Length of Day
10h 11m
Waxing Crescent, 48% of the Moon is Illuminated
Jan 18
Waxing Crescent
Jan 18
First Quarter
Jan 26
Full
Feb 3
Last Quarter
Feb 9
New

Hourly Weather History & Observations

Time (PST) Temp. Dew Point Humidity Pressure Visibility Wind Dir Wind Speed Gust Speed Precip Events Conditions
12:55 AM 64.9 °F 9.0 °F 11% 30.15 in 10.0 mi East 16.1 mph - N/A   Clear
1:55 AM 63.0 °F 10.0 °F 13% 30.15 in 10.0 mi East 15.0 mph - N/A   Clear
2:55 AM 63.0 °F 10.9 °F 13% 30.14 in 10.0 mi ENE 13.8 mph - N/A   Clear
3:55 AM 63.0 °F 10.0 °F 13% 30.13 in 10.0 mi East 16.1 mph - N/A   Clear
4:55 AM 63.0 °F 12.0 °F 14% 30.13 in 10.0 mi East 15.0 mph - N/A   Clear
5:55 AM 63.0 °F 10.9 °F 13% 30.13 in 10.0 mi East 13.8 mph - N/A   Clear
6:55 AM 64.0 °F 10.0 °F 12% 30.13 in 10.0 mi East 17.3 mph - N/A   Clear
8:55 AM 70.0 °F 10.9 °F 10% 30.16 in 10.0 mi East 20.7 mph - N/A   Clear
9:55 AM 73.9 °F 10.0 °F 9% 30.17 in 10.0 mi ENE 23.0 mph - N/A   Clear
10:55 AM 75.9 °F 10.0 °F 8% 30.16 in 10.0 mi ENE 20.7 mph 26.5 mph N/A   Clear
11:55 AM 78.1 °F 10.0 °F 7% 30.13 in 10.0 mi ENE 18.4 mph - N/A   Clear
12:55 PM 79.0 °F 10.0 °F 7% 30.09 in 10.0 mi ENE 20.7 mph 27.6 mph N/A   Clear
1:55 PM 79.0 °F 10.0 °F 7% 30.08 in 10.0 mi ENE 24.2 mph 29.9 mph N/A   Clear
2:55 PM 78.1 °F 9.0 °F 7% 30.08 in 10.0 mi ENE 19.6 mph - N/A   Clear
3:55 PM 77.0 °F 9.0 °F 7% 30.08 in 10.0 mi ENE 20.7 mph 27.6 mph N/A   Clear
4:55 PM 73.9 °F 9.0 °F 8% 30.09 in 10.0 mi ENE 15.0 mph - N/A   Clear
5:55 PM 66.9 °F 10.9 °F 11% 30.11 in 10.0 mi East 8.1 mph - N/A   Clear
6:55 PM 64.0 °F 12.0 °F 13% 30.12 in 10.0 mi NE 6.9 mph - N/A   Clear
7:55 PM 68.0 °F 10.0 °F 11% 30.11 in 10.0 mi ENE 15.0 mph - N/A   Clear
8:55 PM 66.9 °F 10.0 °F 11% 30.12 in 10.0 mi East 17.3 mph - N/A   Clear
9:55 PM 66.9 °F 10.0 °F 11% 30.13 in 10.0 mi East 17.3 mph - N/A   Clear
10:55 PM 66.0 °F 10.0 °F 11% 30.13 in 10.0 mi East 15.0 mph - N/A   Clear
11:55 PM 64.9 °F 10.0 °F 12% 30.13 in 10.0 mi East 17.3 mph - N/A   Clear